Overview Statistics Trail Chart Weather Telemetry Raw packets
 

This is the latest recevied weather packets stored in our database for station/object R1ZCU-14. If no packets are shown the sender has not sent any weather packets the latest 10 day(s).

<< 15 16 17 18 19 20 21 >>
Time Temp. Humidity Pressure Rain* Wind** Luminosity Snow
1788111495 15° C 68% 1004.2 hPa - - - -
1788110894 15° C 69% 1004.2 hPa - - - -
1788110294 15° C 67% 1004.1 hPa - - - -
1788109693 15.56° C 66% 1004.2 hPa - - - -
1788109093 15.56° C 64% 1004.3 hPa - - - -
1788108492 15.56° C 63% 1004.3 hPa - - - -
1788107892 15.56° C 64% 1004.4 hPa - - - -
1788107291 15.56° C 63% 1004.4 hPa - - - -
1788106691 15.56° C 65% 1004.4 hPa - - - -
1788106090 16.11° C 64% 1004.6 hPa - - - -
1788105490 16.11° C 63% 1004.6 hPa - - - -
1788104889 16.11° C 64% 1004.6 hPa - - - -
1788104289 16.67° C 63% 1004.7 hPa - - - -
1788103688 16.67° C 66% 1004.8 hPa - - - -
1788103088 16.67° C 65% 1004.8 hPa - - - -
1788102487 16.67° C 66% 1005 hPa - - - -
1788101887 16.67° C 67% 1005 hPa - - - -
1788101286 16.67° C 68% 1005 hPa - - - -
1788100686 17.22° C 69% 1005.1 hPa - - - -
1788100085 16.67° C 70% 1005.2 hPa - - - -
1788099485 16.67° C 70% 1005.4 hPa - - - -
1788098884 16.67° C 69% 1005.6 hPa - - - -
1788098284 16.11° C 68% 1005.7 hPa - - - -
1788097683 16.11° C 68% 1005.7 hPa - - - -
1788097083 16.11° C 66% 1005.6 hPa - - - -

* Rain since midnight (hover to see other rain measurements)
** Current wind speed in m/s (hover to see current wind gust speed)